Year,Month,Day,Hour,Minute,Value (Times are PST for temperature in C)
2007,05,24,00,00,11.10
2007,05,24,00,01,11.10
2007,05,24,00,02,11.10
2007,05,24,00,03,11.10
2007,05,24,00,04,11.10
2007,05,24,00,05,11.10
2007,05,24,00,06,11.10
2007,05,24,00,07,11.00
2007,05,24,00,08,10.90
2007,05,24,00,09,10.90
2007,05,24,00,10,10.90
2007,05,24,00,11,11.00
2007,05,24,00,12,11.10
2007,05,24,00,13,11.10
2007,05,24,00,14,11.10
2007,05,24,00,15,11.10
2007,05,24,00,16,11.10
2007,05,24,00,17,11.10
2007,05,24,00,18,11.10
2007,05,24,00,19,11.10
2007,05,24,00,20,11.10
2007,05,24,00,21,11.10
2007,05,24,00,22,11.10
2007,05,24,00,23,11.10
2007,05,24,00,24,11.10
2007,05,24,00,25,11.10
2007,05,24,00,26,11.10
2007,05,24,00,27,10.90
2007,05,24,00,28,10.90
2007,05,24,00,29,10.90
2007,05,24,00,30,10.90
2007,05,24,00,31,10.90
2007,05,24,00,32,10.90
2007,05,24,00,33,10.90
2007,05,24,00,34,10.80
2007,05,24,00,35,10.80
2007,05,24,00,36,10.80
2007,05,24,00,37,10.70
2007,05,24,00,38,10.70
2007,05,24,00,39,10.70
2007,05,24,00,40,10.70
2007,05,24,00,41,10.60
2007,05,24,00,42,10.60
2007,05,24,00,43,10.60
2007,05,24,00,44,10.60
2007,05,24,00,45,10.60
2007,05,24,00,46,10.50
2007,05,24,00,47,10.40
2007,05,24,00,48,10.40
2007,05,24,00,49,10.40
2007,05,24,00,50,10.40
2007,05,24,00,51,10.40
2007,05,24,00,52,10.40
2007,05,24,00,53,10.40
2007,05,24,00,54,10.40
2007,05,24,00,55,10.40
2007,05,24,00,56,10.30
2007,05,24,00,57,10.30
2007,05,24,00,58,10.20
2007,05,24,00,59,10.20
2007,05,24,01,00,10.20
2007,05,24,01,01,10.20
2007,05,24,01,02,10.10
2007,05,24,01,03,10.10
2007,05,24,01,04,10.10
2007,05,24,01,05,10.10
2007,05,24,01,06,10.10
2007,05,24,01,07,10.10
2007,05,24,01,08,10.10
2007,05,24,01,09,10.10
2007,05,24,01,10,10.10
2007,05,24,01,11,10.10
2007,05,24,01,12,10.10
2007,05,24,01,13,10.10
2007,05,24,01,14,10.10
2007,05,24,01,15,9.90
2007,05,24,01,16,9.90
2007,05,24,01,17,9.90
2007,05,24,01,18,9.90
2007,05,24,01,19,9.90
2007,05,24,01,20,9.90
2007,05,24,01,21,9.90
2007,05,24,01,22,9.90
2007,05,24,01,23,9.90
2007,05,24,01,24,10.00
2007,05,24,01,25,10.10
2007,05,24,01,26,10.10
2007,05,24,01,27,10.10
2007,05,24,01,28,10.10
2007,05,24,01,29,10.10
2007,05,24,01,30,10.10
2007,05,24,01,31,10.10
2007,05,24,01,32,10.10
2007,05,24,01,33,10.10
2007,05,24,01,34,10.10
2007,05,24,01,35,10.10
2007,05,24,01,36,10.10
2007,05,24,01,37,10.10
2007,05,24,01,38,10.10
2007,05,24,01,39,10.10
2007,05,24,01,40,10.10
2007,05,24,01,41,10.10
2007,05,24,01,42,10.10
2007,05,24,01,43,10.10
2007,05,24,01,44,10.10
2007,05,24,01,45,10.10
2007,05,24,01,46,10.10
2007,05,24,01,47,10.10
2007,05,24,01,48,10.10
2007,05,24,01,49,10.10
2007,05,24,01,50,10.10
2007,05,24,01,51,10.10
2007,05,24,01,52,10.10
2007,05,24,01,53,10.10
2007,05,24,01,54,10.10
2007,05,24,01,55,10.10
2007,05,24,01,56,10.10
2007,05,24,01,57,10.10
2007,05,24,01,58,10.10
2007,05,24,01,59,10.10
2007,05,24,02,00,9.90
2007,05,24,02,01,9.90
2007,05,24,02,02,9.90
2007,05,24,02,03,9.90
2007,05,24,02,04,9.90
2007,05,24,02,05,9.90
2007,05,24,02,06,9.90
2007,05,24,02,07,9.80
2007,05,24,02,08,9.80
2007,05,24,02,09,9.70
2007,05,24,02,10,9.70
2007,05,24,02,11,9.70
2007,05,24,02,12,9.70
2007,05,24,02,13,9.70
2007,05,24,02,14,9.70
2007,05,24,02,15,9.70
2007,05,24,02,16,9.70
2007,05,24,02,17,9.70
2007,05,24,02,18,9.70
2007,05,24,02,19,9.60
2007,05,24,02,20,9.60
2007,05,24,02,21,9.60
2007,05,24,02,22,9.60
2007,05,24,02,23,9.60
2007,05,24,02,24,9.50
2007,05,24,02,25,9.50
2007,05,24,02,26,9.50
2007,05,24,02,27,9.40
2007,05,24,02,28,9.40
2007,05,24,02,29,9.40
2007,05,24,02,30,9.40
2007,05,24,02,31,9.30
2007,05,24,02,32,9.30
2007,05,24,02,33,9.30
2007,05,24,02,34,9.30
2007,05,24,02,35,9.30
2007,05,24,02,36,9.30
2007,05,24,02,37,9.30
2007,05,24,02,38,9.40
2007,05,24,02,39,9.40
2007,05,24,02,40,9.40
2007,05,24,02,41,9.40
2007,05,24,02,42,9.40
2007,05,24,02,43,9.50
2007,05,24,02,44,9.50
2007,05,24,02,45,9.50
2007,05,24,02,46,9.50
2007,05,24,02,47,9.50
2007,05,24,02,48,9.50
2007,05,24,02,49,9.50
2007,05,24,02,50,9.50
2007,05,24,02,51,9.60
2007,05,24,02,52,9.60
2007,05,24,02,53,9.60
2007,05,24,02,54,9.70
2007,05,24,02,55,9.70
2007,05,24,02,56,9.70
2007,05,24,02,57,9.70
2007,05,24,02,58,9.70
2007,05,24,02,59,9.80
2007,05,24,03,00,9.80
2007,05,24,03,01,9.90
2007,05,24,03,02,9.90
2007,05,24,03,03,9.90
2007,05,24,03,04,9.90
2007,05,24,03,05,9.90
2007,05,24,03,06,10.00
2007,05,24,03,07,10.10
2007,05,24,03,08,10.10
2007,05,24,03,09,10.10
2007,05,24,03,10,10.10
2007,05,24,03,11,10.10
2007,05,24,03,12,10.10
2007,05,24,03,13,10.10
2007,05,24,03,14,10.10
2007,05,24,03,15,10.10
2007,05,24,03,16,10.10
2007,05,24,03,17,10.10
2007,05,24,03,18,10.10
2007,05,24,03,19,10.10
2007,05,24,03,20,10.10
2007,05,24,03,21,10.10
2007,05,24,03,22,10.10
2007,05,24,03,23,10.10
2007,05,24,03,24,10.10
2007,05,24,03,25,9.90
2007,05,24,03,26,9.90
2007,05,24,03,27,9.90
2007,05,24,03,28,9.90
2007,05,24,03,29,9.90
2007,05,24,03,30,9.90
2007,05,24,03,31,9.90
2007,05,24,03,32,9.90
2007,05,24,03,33,9.90
2007,05,24,03,34,9.90
2007,05,24,03,35,9.90
2007,05,24,03,36,9.90
2007,05,24,03,37,9.90
2007,05,24,03,38,9.90
2007,05,24,03,39,10.00
2007,05,24,03,40,10.10
2007,05,24,03,41,10.10
2007,05,24,03,42,10.10
2007,05,24,03,43,10.10
2007,05,24,03,44,10.10
2007,05,24,03,45,10.10
2007,05,24,03,46,10.10
2007,05,24,03,47,10.20
2007,05,24,03,48,10.20
2007,05,24,03,49,10.20
2007,05,24,03,50,10.30
2007,05,24,03,51,10.30
2007,05,24,03,52,10.40
2007,05,24,03,53,10.40
2007,05,24,03,54,10.40
2007,05,24,03,55,10.30
2007,05,24,03,56,10.30
2007,05,24,03,57,10.30
2007,05,24,03,58,10.20
2007,05,24,03,59,10.20
2007,05,24,04,00,10.10
2007,05,24,04,01,10.10
2007,05,24,04,02,10.10
2007,05,24,04,03,10.10
2007,05,24,04,04,9.90
2007,05,24,04,05,9.90
2007,05,24,04,06,9.90
2007,05,24,04,07,9.90
2007,05,24,04,08,9.80
2007,05,24,04,09,9.80
2007,05,24,04,10,9.70
2007,05,24,04,11,9.70
2007,05,24,04,12,9.70
2007,05,24,04,13,9.70
2007,05,24,04,14,9.70
2007,05,24,04,15,9.60
2007,05,24,04,16,9.60
2007,05,24,04,17,9.60
2007,05,24,04,18,9.60
2007,05,24,04,19,9.60
2007,05,24,04,20,9.50
2007,05,24,04,21,9.50
2007,05,24,04,22,9.50
2007,05,24,04,23,9.50
2007,05,24,04,24,9.40
2007,05,24,04,25,9.40
2007,05,24,04,26,9.40
2007,05,24,04,27,9.40
2007,05,24,04,28,9.40
2007,05,24,04,29,9.40
2007,05,24,04,30,9.40
2007,05,24,04,31,9.40
2007,05,24,04,32,9.30
2007,05,24,04,33,9.30
2007,05,24,04,34,9.30
2007,05,24,04,35,9.30
2007,05,24,04,36,9.40
2007,05,24,04,37,9.40
2007,05,24,04,38,9.40
2007,05,24,04,39,9.30
2007,05,24,04,40,9.30
2007,05,24,04,41,9.30
2007,05,24,04,42,9.20
2007,05,24,04,43,9.20
2007,05,24,04,44,9.20
2007,05,24,04,45,9.20
2007,05,24,04,46,9.20
2007,05,24,04,47,9.20
2007,05,24,04,48,9.20
2007,05,24,04,49,9.20
2007,05,24,04,50,9.20
2007,05,24,04,51,9.20
2007,05,24,04,52,9.10
2007,05,24,04,53,9.10
2007,05,24,04,54,9.10
2007,05,24,04,55,9.10
2007,05,24,04,56,9.10
2007,05,24,04,57,9.10
2007,05,24,04,58,9.10
2007,05,24,04,59,9.00
2007,05,24,05,00,9.00
2007,05,24,05,01,8.90
2007,05,24,05,02,8.90
2007,05,24,05,03,8.90
2007,05,24,05,04,8.90
2007,05,24,05,05,8.90
2007,05,24,05,06,8.90
2007,05,24,05,07,8.80
2007,05,24,05,08,8.70
2007,05,24,05,09,8.70
2007,05,24,05,10,8.50
2007,05,24,05,11,8.50
2007,05,24,05,12,8.40
2007,05,24,05,13,8.40
2007,05,24,05,14,8.30
2007,05,24,05,15,8.30
2007,05,24,05,16,8.30
2007,05,24,05,17,8.20
2007,05,24,05,18,8.20
2007,05,24,05,19,8.20
2007,05,24,05,20,8.20
2007,05,24,05,21,8.20
2007,05,24,05,22,8.20
2007,05,24,05,23,8.30
2007,05,24,05,24,8.30
2007,05,24,05,25,8.40
2007,05,24,05,26,8.40
2007,05,24,05,27,8.50
2007,05,24,05,28,8.50
2007,05,24,05,29,8.50
2007,05,24,05,30,8.50
2007,05,24,05,31,8.50
2007,05,24,05,32,8.50
2007,05,24,05,33,8.40
2007,05,24,05,34,8.40
2007,05,24,05,35,8.30
2007,05,24,05,36,8.30
2007,05,24,05,37,8.30
2007,05,24,05,38,8.40
2007,05,24,05,39,8.40
2007,05,24,05,40,8.40
2007,05,24,05,41,8.40
2007,05,24,05,42,8.40
2007,05,24,05,43,8.40
2007,05,24,05,44,8.40
2007,05,24,05,45,8.40
2007,05,24,05,46,8.50
2007,05,24,05,47,8.50
2007,05,24,05,48,8.50
2007,05,24,05,49,8.50
2007,05,24,05,50,8.50
2007,05,24,05,51,8.50
2007,05,24,05,52,8.50
2007,05,24,05,53,8.50
2007,05,24,05,54,8.50
2007,05,24,05,55,8.50
2007,05,24,05,56,8.50
2007,05,24,05,57,8.60
2007,05,24,05,58,8.60
2007,05,24,05,59,8.60
2007,05,24,06,00,8.60
2007,05,24,06,01,8.60
2007,05,24,06,02,8.60
2007,05,24,06,03,8.70
2007,05,24,06,04,8.70
2007,05,24,06,05,8.70
2007,05,24,06,06,8.70
2007,05,24,06,07,8.70
2007,05,24,06,08,8.70
2007,05,24,06,09,8.70
2007,05,24,06,10,8.70
2007,05,24,06,11,8.70
2007,05,24,06,12,8.70
2007,05,24,06,13,8.70
2007,05,24,06,14,8.70
2007,05,24,06,15,8.70
2007,05,24,06,16,8.70
2007,05,24,06,17,8.70
2007,05,24,06,18,8.70
2007,05,24,06,19,8.70
2007,05,24,06,20,8.80
2007,05,24,06,21,8.80
2007,05,24,06,22,8.80
2007,05,24,06,23,8.90
2007,05,24,06,24,8.90
2007,05,24,06,25,8.90
2007,05,24,06,26,9.00
2007,05,24,06,27,9.00
2007,05,24,06,28,9.00
2007,05,24,06,29,9.10
2007,05,24,06,30,9.10
2007,05,24,06,31,9.20
2007,05,24,06,32,9.20
2007,05,24,06,33,9.20
2007,05,24,06,34,9.20
2007,05,24,06,35,9.30
2007,05,24,06,36,9.30
2007,05,24,06,37,9.30
2007,05,24,06,38,9.30
2007,05,24,06,39,9.40
2007,05,24,06,40,9.40
2007,05,24,06,41,9.40
2007,05,24,06,42,9.40
2007,05,24,06,43,9.50
2007,05,24,06,44,9.50
2007,05,24,06,45,9.50
2007,05,24,06,46,9.50
2007,05,24,06,47,9.60
2007,05,24,06,48,9.60
2007,05,24,06,49,9.60
2007,05,24,06,50,9.70
2007,05,24,06,51,9.70
2007,05,24,06,52,9.70
2007,05,24,06,53,9.70
2007,05,24,06,54,9.70
2007,05,24,06,55,9.80
2007,05,24,06,56,9.80
2007,05,24,06,57,9.90
2007,05,24,06,58,9.90
2007,05,24,06,59,10.00
2007,05,24,07,00,10.10
2007,05,24,07,01,10.10
2007,05,24,07,02,10.20
2007,05,24,07,03,10.20
2007,05,24,07,04,10.30
2007,05,24,07,05,10.30
2007,05,24,07,06,10.40
2007,05,24,07,07,10.40
2007,05,24,07,08,10.50
2007,05,24,07,09,10.60
2007,05,24,07,10,10.60
2007,05,24,07,11,10.70
2007,05,24,07,12,10.70
2007,05,24,07,13,10.80
2007,05,24,07,14,10.90
2007,05,24,07,15,10.90
2007,05,24,07,16,11.10
2007,05,24,07,17,11.10
2007,05,24,07,18,11.20
2007,05,24,07,19,11.30
2007,05,24,07,20,11.40
2007,05,24,07,21,11.40
2007,05,24,07,22,11.50
2007,05,24,07,23,11.60
2007,05,24,07,24,11.60
2007,05,24,07,25,11.70
2007,05,24,07,26,11.80
2007,05,24,07,27,11.80
2007,05,24,07,28,11.90
2007,05,24,07,29,11.90
2007,05,24,07,30,12.00
2007,05,24,07,31,12.00
2007,05,24,07,32,12.10
2007,05,24,07,33,12.20
2007,05,24,07,34,12.40
2007,05,24,07,35,12.50
2007,05,24,07,36,12.60
2007,05,24,07,37,12.70
2007,05,24,07,38,12.80
2007,05,24,07,39,12.80
2007,05,24,07,40,12.90
2007,05,24,07,41,13.00
2007,05,24,07,42,13.10
2007,05,24,07,43,13.10
2007,05,24,07,44,13.20
2007,05,24,07,45,13.20
2007,05,24,07,46,13.30
2007,05,24,07,47,13.30
2007,05,24,07,48,13.30
2007,05,24,07,49,13.30
2007,05,24,07,50,13.30
2007,05,24,07,51,13.30
2007,05,24,07,52,13.30
2007,05,24,07,53,13.30
2007,05,24,07,54,13.30
2007,05,24,07,55,13.30
2007,05,24,07,56,13.30
2007,05,24,07,57,13.30
2007,05,24,07,58,13.30
2007,05,24,07,59,13.20
2007,05,24,08,00,13.20
2007,05,24,08,01,13.10
2007,05,24,08,02,13.10
2007,05,24,08,03,13.10
2007,05,24,08,04,13.10
2007,05,24,08,05,13.00
2007,05,24,08,06,13.00
2007,05,24,08,07,13.00
2007,05,24,08,08,13.00
2007,05,24,08,09,13.00
2007,05,24,08,10,12.90
2007,05,24,08,11,12.90
2007,05,24,08,12,12.90
2007,05,24,08,13,12.90
2007,05,24,08,14,12.90
2007,05,24,08,15,12.90
2007,05,24,08,16,12.90
2007,05,24,08,17,12.90
2007,05,24,08,18,12.90
2007,05,24,08,19,12.90
2007,05,24,08,20,13.00
2007,05,24,08,21,13.00
2007,05,24,08,22,13.00
2007,05,24,08,23,13.00
2007,05,24,08,24,13.00
2007,05,24,08,25,13.00
2007,05,24,08,26,13.00
2007,05,24,08,27,13.00
2007,05,24,08,28,13.10
2007,05,24,08,29,13.10
2007,05,24,08,30,13.10
2007,05,24,08,31,13.20
2007,05,24,08,32,13.30
2007,05,24,08,33,13.30
2007,05,24,08,34,13.40
2007,05,24,08,35,13.50
2007,05,24,08,36,13.50
2007,05,24,08,37,13.60
2007,05,24,08,38,13.60
2007,05,24,08,39,13.60
2007,05,24,08,40,13.70
2007,05,24,08,41,13.60
2007,05,24,08,42,13.60
2007,05,24,08,43,13.50
2007,05,24,08,44,13.50
2007,05,24,08,45,13.40
2007,05,24,08,46,13.30
2007,05,24,08,47,13.30
2007,05,24,08,48,13.30
2007,05,24,08,49,13.30
2007,05,24,08,50,13.20
2007,05,24,08,51,13.20
2007,05,24,08,52,13.20
2007,05,24,08,53,13.20
2007,05,24,08,54,13.10
2007,05,24,08,55,13.10
2007,05,24,08,56,13.10
2007,05,24,08,57,13.10
2007,05,24,08,58,13.00
2007,05,24,08,59,13.00
2007,05,24,09,00,13.00
2007,05,24,09,01,13.10
2007,05,24,09,02,13.10
2007,05,24,09,03,13.10
2007,05,24,09,04,13.20
2007,05,24,09,05,13.20
2007,05,24,09,06,13.20
2007,05,24,09,07,13.20
2007,05,24,09,08,13.20
2007,05,24,09,09,13.20
2007,05,24,09,10,13.20
2007,05,24,09,11,13.20
2007,05,24,09,12,13.20
2007,05,24,09,13,13.20
2007,05,24,09,14,13.30
2007,05,24,09,15,13.30
2007,05,24,09,16,13.20
2007,05,24,09,17,13.20
2007,05,24,09,18,13.10
2007,05,24,09,19,13.00
2007,05,24,09,20,13.00
2007,05,24,09,21,13.00
2007,05,24,09,22,13.00
2007,05,24,09,23,13.00
2007,05,24,09,24,13.00
2007,05,24,09,25,13.00
2007,05,24,09,26,13.00
2007,05,24,09,27,13.00
2007,05,24,09,28,13.00
2007,05,24,09,29,13.00
2007,05,24,09,30,13.00
2007,05,24,09,31,13.10
2007,05,24,09,32,13.10
2007,05,24,09,33,13.10
2007,05,24,09,34,13.10
2007,05,24,09,35,13.10
2007,05,24,09,36,13.10
2007,05,24,09,37,13.10
2007,05,24,09,38,13.20
2007,05,24,09,39,13.20
2007,05,24,09,40,13.20
2007,05,24,09,41,13.20
2007,05,24,09,42,13.30
2007,05,24,09,43,13.30
2007,05,24,09,44,13.30
2007,05,24,09,45,13.30
2007,05,24,09,46,13.40
2007,05,24,09,47,13.50
2007,05,24,09,48,13.50
2007,05,24,09,49,13.60
2007,05,24,09,50,13.60
2007,05,24,09,51,13.60
2007,05,24,09,52,13.70
2007,05,24,09,53,13.70
2007,05,24,09,54,13.80
2007,05,24,09,55,13.80
2007,05,24,09,56,13.90
2007,05,24,09,57,13.90
2007,05,24,09,58,13.90
2007,05,24,09,59,13.90
2007,05,24,10,00,14.00
2007,05,24,10,01,14.10
2007,05,24,10,02,14.20
2007,05,24,10,03,14.20
2007,05,24,10,04,14.20
2007,05,24,10,05,14.20
2007,05,24,10,06,14.20
2007,05,24,10,07,14.10
2007,05,24,10,08,14.10
2007,05,24,10,09,14.20
2007,05,24,10,10,14.20
2007,05,24,10,11,14.30
2007,05,24,10,12,14.40
2007,05,24,10,13,14.50
2007,05,24,10,14,14.60
2007,05,24,10,15,14.70
2007,05,24,10,16,14.60
2007,05,24,10,17,14.50
2007,05,24,10,18,14.50
2007,05,24,10,19,14.50
2007,05,24,10,20,14.50
2007,05,24,10,21,14.40
2007,05,24,10,22,14.40
2007,05,24,10,23,14.50
2007,05,24,10,24,14.50
2007,05,24,10,25,14.60
2007,05,24,10,26,14.60
2007,05,24,10,27,14.60
2007,05,24,10,28,14.60
2007,05,24,10,29,14.60
2007,05,24,10,30,14.60
2007,05,24,10,31,14.60
2007,05,24,10,32,14.50
2007,05,24,10,33,14.50
2007,05,24,10,34,14.50
2007,05,24,10,35,14.60
2007,05,24,10,36,14.70
2007,05,24,10,37,14.70
2007,05,24,10,38,14.70
2007,05,24,10,39,14.80
2007,05,24,10,40,14.90
2007,05,24,10,41,14.90
2007,05,24,10,42,14.80
2007,05,24,10,43,14.80
2007,05,24,10,44,14.80
2007,05,24,10,45,14.80
2007,05,24,10,46,14.80
2007,05,24,10,47,14.80
2007,05,24,10,48,14.90
2007,05,24,10,49,15.00
2007,05,24,10,50,14.90
2007,05,24,10,51,14.80
2007,05,24,10,52,14.80
2007,05,24,10,53,14.80
2007,05,24,10,54,14.80
2007,05,24,10,55,14.90
2007,05,24,10,56,15.00
2007,05,24,10,57,15.20
2007,05,24,10,58,15.30
2007,05,24,10,59,15.30
2007,05,24,11,00,15.30
2007,05,24,11,01,15.40
2007,05,24,11,02,15.50
2007,05,24,11,03,15.50
2007,05,24,11,04,15.50
2007,05,24,11,05,15.50
2007,05,24,11,06,15.50
2007,05,24,11,07,15.50
2007,05,24,11,08,15.50
2007,05,24,11,09,15.50
2007,05,24,11,10,15.50
2007,05,24,11,11,15.50
2007,05,24,11,12,15.50
2007,05,24,11,13,15.30
2007,05,24,11,14,15.20
2007,05,24,11,15,15.10
2007,05,24,11,16,15.00
2007,05,24,11,17,14.90
2007,05,24,11,18,14.90
2007,05,24,11,19,15.00
2007,05,24,11,20,15.00
2007,05,24,11,21,15.00
2007,05,24,11,22,15.10
2007,05,24,11,23,15.20
2007,05,24,11,24,15.40
2007,05,24,11,25,15.50
2007,05,24,11,26,15.60
2007,05,24,11,27,15.60
2007,05,24,11,28,15.60
2007,05,24,11,29,15.50
2007,05,24,11,30,15.50
2007,05,24,11,31,15.50
2007,05,24,11,32,15.60
2007,05,24,11,33,15.70
2007,05,24,11,34,15.80
2007,05,24,11,35,15.80
2007,05,24,11,36,16.00
2007,05,24,11,37,16.10
2007,05,24,11,38,16.10
2007,05,24,11,39,16.00
2007,05,24,11,40,15.80
2007,05,24,11,41,15.80
2007,05,24,11,42,15.80
2007,05,24,11,43,15.80
2007,05,24,11,44,15.80
2007,05,24,11,45,15.80
2007,05,24,11,46,16.00
2007,05,24,11,47,16.10
2007,05,24,11,48,16.20
2007,05,24,11,49,16.20
2007,05,24,11,50,16.20
2007,05,24,11,51,16.20
2007,05,24,11,52,16.10
2007,05,24,11,53,15.90
2007,05,24,11,54,15.80
2007,05,24,11,55,15.80
2007,05,24,11,56,15.80
2007,05,24,11,57,15.70
2007,05,24,11,58,15.70
2007,05,24,11,59,15.60
2007,05,24,12,00,15.60
2007,05,24,12,01,15.60
2007,05,24,12,02,15.60
2007,05,24,12,03,15.60
2007,05,24,12,04,15.70
2007,05,24,12,05,15.80
2007,05,24,12,06,15.90
2007,05,24,12,07,16.10
2007,05,24,12,08,16.10
2007,05,24,12,09,15.90
2007,05,24,12,10,15.80
2007,05,24,12,11,15.80
2007,05,24,12,12,15.80
2007,05,24,12,13,15.80
2007,05,24,12,14,15.90
2007,05,24,12,15,16.00
2007,05,24,12,16,16.10
2007,05,24,12,17,16.10
2007,05,24,12,18,16.10
2007,05,24,12,19,16.10
2007,05,24,12,20,16.10
2007,05,24,12,21,16.00
2007,05,24,12,22,15.90
2007,05,24,12,23,15.90
2007,05,24,12,24,15.90
2007,05,24,12,25,15.90
2007,05,24,12,26,15.90
2007,05,24,12,27,16.00
2007,05,24,12,28,16.10
2007,05,24,12,29,16.10
2007,05,24,12,30,16.10
2007,05,24,12,31,16.20
2007,05,24,12,32,16.30
2007,05,24,12,33,16.40
2007,05,24,12,34,16.50
2007,05,24,12,35,16.60
2007,05,24,12,36,16.70
2007,05,24,12,37,16.70
2007,05,24,12,38,16.70
2007,05,24,12,39,16.60
2007,05,24,12,40,16.60
2007,05,24,12,41,16.40
2007,05,24,12,42,16.40
2007,05,24,12,43,16.40
2007,05,24,12,44,16.30
2007,05,24,12,45,16.30
2007,05,24,12,46,16.30
2007,05,24,12,47,16.30
2007,05,24,12,48,16.30
2007,05,24,12,49,16.20
2007,05,24,12,50,16.20
2007,05,24,12,51,16.10
2007,05,24,12,52,16.10
2007,05,24,12,53,16.10
2007,05,24,12,54,16.10
2007,05,24,12,55,16.10
2007,05,24,12,56,16.20
2007,05,24,12,57,16.30
2007,05,24,12,58,16.40
2007,05,24,12,59,16.60
2007,05,24,13,00,16.70
2007,05,24,13,01,16.80
2007,05,24,13,02,16.90
2007,05,24,13,03,16.90
2007,05,24,13,04,17.00
2007,05,24,13,05,17.00
2007,05,24,13,06,17.10
2007,05,24,13,07,17.10
2007,05,24,13,08,17.10
2007,05,24,13,09,17.10
2007,05,24,13,10,17.20
2007,05,24,13,11,17.30
2007,05,24,13,12,17.30
2007,05,24,13,13,17.40
2007,05,24,13,14,17.50
2007,05,24,13,15,17.50
2007,05,24,13,16,17.50
2007,05,24,13,17,17.30
2007,05,24,13,18,17.30
2007,05,24,13,19,17.40
2007,05,24,13,20,17.50
2007,05,24,13,21,17.50
2007,05,24,13,22,17.40
2007,05,24,13,23,17.30
2007,05,24,13,24,17.30
2007,05,24,13,25,17.40
2007,05,24,13,26,17.50
2007,05,24,13,27,17.60
2007,05,24,13,28,17.70
2007,05,24,13,29,17.80
2007,05,24,13,30,17.80
2007,05,24,13,31,17.80
2007,05,24,13,32,17.80
2007,05,24,13,33,17.90
2007,05,24,13,34,17.90
2007,05,24,13,35,18.00
2007,05,24,13,36,18.10
2007,05,24,13,37,18.20
2007,05,24,13,38,18.20
2007,05,24,13,39,18.20
2007,05,24,13,40,18.20
2007,05,24,13,41,18.20
2007,05,24,13,42,18.20
2007,05,24,13,43,18.20
2007,05,24,13,44,18.20
2007,05,24,13,45,18.20
2007,05,24,13,46,18.20
2007,05,24,13,47,18.20
2007,05,24,13,48,18.20
2007,05,24,13,49,18.20
2007,05,24,13,50,18.20
2007,05,24,13,51,18.10
2007,05,24,13,52,18.00
2007,05,24,13,53,17.90
2007,05,24,13,54,17.90
2007,05,24,13,55,17.90
2007,05,24,13,56,17.80
2007,05,24,13,57,17.80
2007,05,24,13,58,17.80
2007,05,24,13,59,17.80
2007,05,24,14,00,17.80
2007,05,24,14,01,17.80
2007,05,24,14,02,17.80
2007,05,24,14,03,17.80
2007,05,24,14,04,17.80
2007,05,24,14,05,17.80
2007,05,24,14,06,17.90
2007,05,24,14,07,17.90
2007,05,24,14,08,17.90
2007,05,24,14,09,17.90
2007,05,24,14,10,18.00
2007,05,24,14,11,18.10
2007,05,24,14,12,18.10
2007,05,24,14,13,18.20
2007,05,24,14,14,18.40
2007,05,24,14,15,18.50
2007,05,24,14,16,18.60
2007,05,24,14,17,18.50
2007,05,24,14,18,18.50
2007,05,24,14,19,18.40
2007,05,24,14,20,18.40
2007,05,24,14,21,18.30
2007,05,24,14,22,18.30
2007,05,24,14,23,18.30
2007,05,24,14,24,18.20
2007,05,24,14,25,18.20
2007,05,24,14,26,18.20
2007,05,24,14,27,18.30
2007,05,24,14,28,18.30
2007,05,24,14,29,18.30
2007,05,24,14,30,18.30
2007,05,24,14,31,18.20
2007,05,24,14,32,18.20
2007,05,24,14,33,18.20
2007,05,24,14,34,18.30
2007,05,24,14,35,18.30
2007,05,24,14,36,18.40
2007,05,24,14,37,18.50
2007,05,24,14,38,18.50
2007,05,24,14,39,18.60
2007,05,24,14,40,18.70
2007,05,24,14,41,18.70
2007,05,24,14,42,18.70
2007,05,24,14,43,18.60
2007,05,24,14,44,18.70
2007,05,24,14,45,18.70
2007,05,24,14,46,18.70
2007,05,24,14,47,18.70
2007,05,24,14,48,18.70
2007,05,24,14,49,18.70
2007,05,24,14,50,18.80
2007,05,24,14,51,18.90
2007,05,24,14,52,19.00
2007,05,24,14,53,19.30
2007,05,24,14,54,19.40
2007,05,24,14,55,19.40
2007,05,24,14,56,19.40
2007,05,24,14,57,19.40
2007,05,24,14,58,19.50
2007,05,24,14,59,19.50
2007,05,24,15,00,19.60
2007,05,24,15,01,19.50
2007,05,24,15,02,19.50
2007,05,24,15,03,19.40
2007,05,24,15,04,19.40
2007,05,24,15,05,19.50
2007,05,24,15,06,19.50
2007,05,24,15,07,19.40
2007,05,24,15,08,19.50
2007,05,24,15,09,19.50
2007,05,24,15,10,19.40
2007,05,24,15,11,19.40
2007,05,24,15,12,19.30
2007,05,24,15,13,19.30
2007,05,24,15,14,19.40
2007,05,24,15,15,19.50
2007,05,24,15,16,19.60
2007,05,24,15,17,19.70
2007,05,24,15,18,19.90
2007,05,24,15,19,19.90
2007,05,24,15,20,19.90
2007,05,24,15,21,19.90
2007,05,24,15,22,19.90
2007,05,24,15,23,19.90
2007,05,24,15,24,19.90
2007,05,24,15,25,20.00
2007,05,24,15,26,20.10
2007,05,24,15,27,20.20
2007,05,24,15,28,20.20
2007,05,24,15,29,20.20
2007,05,24,15,30,20.30
2007,05,24,15,31,20.30
2007,05,24,15,32,20.20
2007,05,24,15,33,20.20
2007,05,24,15,34,20.20
2007,05,24,15,35,20.30
2007,05,24,15,36,20.40
2007,05,24,15,37,20.50
2007,05,24,15,38,20.50
2007,05,24,15,39,20.60
2007,05,24,15,40,20.60
2007,05,24,15,41,20.60
2007,05,24,15,42,20.50
2007,05,24,15,43,20.30
2007,05,24,15,44,20.20
2007,05,24,15,45,20.00
2007,05,24,15,46,19.80
2007,05,24,15,47,19.60
2007,05,24,15,48,19.40
2007,05,24,15,49,19.40
2007,05,24,15,50,19.30
2007,05,24,15,51,19.30
2007,05,24,15,52,19.30
2007,05,24,15,53,19.30
2007,05,24,15,54,19.40
2007,05,24,15,55,19.50
2007,05,24,15,56,19.70
2007,05,24,15,57,19.70
2007,05,24,15,58,19.80
2007,05,24,15,59,19.80
2007,05,24,16,00,19.80
2007,05,24,16,01,19.80
2007,05,24,16,02,19.90
2007,05,24,16,03,19.90
2007,05,24,16,04,20.10
2007,05,24,16,05,20.20
2007,05,24,16,06,20.40
2007,05,24,16,07,20.50
2007,05,24,16,08,20.60
2007,05,24,16,09,20.70
2007,05,24,16,10,20.80
2007,05,24,16,11,21.00
2007,05,24,16,12,21.00
2007,05,24,16,13,21.10
2007,05,24,16,14,21.10
2007,05,24,16,15,21.10
2007,05,24,16,16,21.00
2007,05,24,16,17,20.90
2007,05,24,16,18,20.80
2007,05,24,16,19,20.70
2007,05,24,16,20,20.60
2007,05,24,16,21,20.40
2007,05,24,16,22,20.30
2007,05,24,16,23,20.20
2007,05,24,16,24,20.20
2007,05,24,16,25,20.20
2007,05,24,16,26,20.30
2007,05,24,16,27,20.30
2007,05,24,16,28,20.20
2007,05,24,16,29,20.20
2007,05,24,16,30,20.20
2007,05,24,16,31,20.20
2007,05,24,16,32,20.20
2007,05,24,16,33,20.20
2007,05,24,16,34,20.20
2007,05,24,16,35,20.20
2007,05,24,16,36,20.20
2007,05,24,16,37,20.10
2007,05,24,16,38,19.90
2007,05,24,16,39,19.90
2007,05,24,16,40,19.80
2007,05,24,16,41,19.80
2007,05,24,16,42,19.80
2007,05,24,16,43,19.90
2007,05,24,16,44,20.00
2007,05,24,16,45,20.10
2007,05,24,16,46,20.20
2007,05,24,16,47,20.30
2007,05,24,16,48,20.30
2007,05,24,16,49,20.40
2007,05,24,16,50,20.40
2007,05,24,16,51,20.30
2007,05,24,16,52,20.30
2007,05,24,16,53,20.20
2007,05,24,16,54,20.10
2007,05,24,16,55,20.00
2007,05,24,16,56,19.90
2007,05,24,16,57,19.90
2007,05,24,16,58,19.90
2007,05,24,16,59,20.00
2007,05,24,17,00,20.10
2007,05,24,17,01,20.20
2007,05,24,17,02,20.20
2007,05,24,17,03,20.20
2007,05,24,17,04,20.10
2007,05,24,17,05,19.90
2007,05,24,17,06,19.90
2007,05,24,17,07,19.90
2007,05,24,17,08,19.90
2007,05,24,17,09,19.80
2007,05,24,17,10,19.80
2007,05,24,17,11,19.90
2007,05,24,17,12,20.00
2007,05,24,17,13,20.10
2007,05,24,17,14,20.10
2007,05,24,17,15,20.10
2007,05,24,17,16,20.10
2007,05,24,17,17,20.10
2007,05,24,17,18,19.90
2007,05,24,17,19,20.00
2007,05,24,17,20,20.10
2007,05,24,17,21,20.20
2007,05,24,17,22,20.30
2007,05,24,17,23,20.50
2007,05,24,17,24,20.50
2007,05,24,17,25,20.60
2007,05,24,17,26,20.60
2007,05,24,17,27,20.60
2007,05,24,17,28,20.60
2007,05,24,17,29,20.70
2007,05,24,17,30,20.80